Regional Weather Roundup
Issued by NWS Midland/Odessa, TX

Skip options and go directly to product.
Home | Oldest Version | Previous Version | Current Version | All | Graphics & Text | Save Text | Print | Product List | Glossary On

Skip product version selection by date and time.   
772
ASUS44 KMAF 051810
RWRMAF
MIDLAND AREA WEATHER ROUNDUP
NATIONAL WEATHER SERVICE MIDLAND TX
100 PM CDT TUE MAY 05 2015

...IN SOUTHWEST TEXAS AND SOUTHEAST NEW MEXICO...

CITY           SKY/WX    TMP DP  RH WIND       PRES   REMARKS
ALPINE         SUNNY     75  33  21 SW8       30.05F
ANDREWS        FAIR      72  59  62 S10G17    29.91S
ARTESIA        MOSUNNY   72  55  56 S14G21    29.90F
BIG SPRING     CLOUDY    69  63  81 NE7       29.91F
CARLSBAD       PTSUNNY   74  53  48 S9G18     29.89F
DRYDEN           N/A     84  58  40 CALM      29.88F
FORT STOCKTON  SUNNY     77  52  41 W13       29.93F
GUAD PASS      MOSUNNY   66  37  34 SW30G36   30.01F
HOBBS          MOSUNNY   66  55  68 SW8       29.94S
MARFA          MOSUNNY   73  36  25 SW17      30.05S
MIDLAND AIRPK  MOSUNNY   79  59  50 SW9       29.89F
MIDLAND INTL   MOSUNNY   78  58  49 SW15      29.89F
ODESSA         SUNNY     77  57  50 SW16      29.90F
PECOS          SUNNY     80  47  31 NW9       29.90F
PRESIDIO       FAIR      81  34  18 MISG      29.93F
SEMINOLE       SUNNY     72  55  55 SW7       29.92F
SNYDER         DRIZZLE   59  58  97 N3        29.94F
WINK           SUNNY     77  53  43 W13       29.90S
$$
...OTHER STATIONS IN TEXAS...

CITY           SKY/WX    TMP DP  RH WIND       PRES   REMARKS
ABILENE        CLOUDY    72  60  66 S29G37    29.93F
AMARILLO       CLOUDY    65  52  62 SE8       29.88S
AUSTIN         CLOUDY    78  66  66 S12       29.99F
BROWNSVILLE    CLOUDY    84  72  67 SE23G32   29.93F
CORPUS CHRISTI PTSUNNY   82  69  64 SE21G35   29.95F
DALLAS FTW     CLOUDY    75  64  68 SE16G25   30.01F
DEL RIO        CLOUDY    73  67  81 SE10      29.90F
EL PASO        MOSUNNY   71  37  28 W14G25    29.96F
HOUSTON INT    PTSUNNY   81  70  69 SE26G37   30.03F
LUBBOCK        MOSUNNY   65  57  75 S15       29.90F
SAN ANGELO     PTSUNNY   75  62  64 S22G36    29.92S
SAN ANTONIO    CLOUDY    79  64  60 SE20      29.97F
WACO           LGT RAIN  77  63  61 S15       30.01F
WICHITA FALLS  NOT AVBL
$$
...OTHER LOCATIONS IN NEW MEXICO...

CITY           SKY/WX    TMP DP  RH WIND       PRES   REMARKS
ALAMAGORDO     PTSUNNY   68  37  32 W10       29.95F
ALBUQUERQUE    PTSUNNY   58  41  53 W13       29.95F
CANNON AFB     PTSUNNY   63  52  68 SW12      29.91F
CLOVIS         PTSUNNY   63  50  63 W12       29.92S
HOLLOMAN AFB   MOSUNNY   70  40  33 SW12G21   29.92F
ROSWELL        MOSUNNY   72  53  51 SE16      29.87F
RUIDOSO        LGT RAIN  48  37  66 S12       30.03R
SANTA FE       CLOUDY    55  43  63 W14       29.96F
TRUTH OR CONSE CLOUDY    66  33  29 S10       29.94S
TUCUMCARI      CLOUDY    64  51  62 W7        29.87F
$$

USA.gov is the U.S. government's official web portal to all federal, state and local government web resources and services.